Location: ???
(60.6398°N, 46.9067°E)
Time: 18:25:10
(UTC+00:00)

Cosmos 2344 - Pass Details

Date: 08 December 2019
Orbit: 1256 x 2986 km, 63.3° (Epoch: 17 January)

Event Time Altitude Azimuth Distance (km) Brightness Sun altitude
Rises 15:22:53 0° 295° (WNW) 4,377 7.4 -24.4°
Reaches altitude 10° 15:25:26 10° 295° (WNW) 3,503 6.7 -24.7°
Maximum altitude 15:34:00 86° 208° (SSW) 1,695 4.1 -25.7°
Enters shadow 15:39:35 35° 122° (ESE) 2,792 4.9 -26.4°
